AFR18RG LFPG-LEPA

Flight info

Callsign AFR18RG
Flight time N/A
Altitude 41000
Route ERIXU DCT ETAMO DCT VALKU DCT ATSUP DCT MINSO DCT DEGOL DCT PPG DCT ALBER DCT GIR DCT NENDA DCT KUREG DCT LORES
Aircraft A359/H-SDE2E3GHIJ3J4J5LM1ORWXY/LB1D1

Departure

Time 2026-05-05 09:39
Airport Charles de Gaulle International Airport (LFPG)

Arrival

Time N/A
Airport Palma de Mallorca Airport (LEPA)
Time Latitude Longitude Altitude Speed Heading
2026-05-05 09:12 49.00149 2.58024 360 ft 0 kts 358°
2026-05-05 09:19 49.00164 2.58023 363 ft 0 kts 358°
2026-05-05 09:19 49.00143 2.58023 360 ft 4 kts
2026-05-05 09:20 49.00116 2.58022 368 ft 4 kts 355°
2026-05-05 09:20 49.00095 2.58026 360 ft 4 kts 335°
2026-05-05 09:20 49.00081 2.58039 361 ft 4 kts 289°
2026-05-05 09:20 49.00079 2.58072 368 ft 4 kts 262°
2026-05-05 09:21 49.00082 2.58111 361 ft 2 kts 265°
2026-05-05 09:21 49.00083 2.58111 360 ft 0 kts 265°
2026-05-05 09:21 49.00082 2.58111 360 ft 0 kts 265°
2026-05-05 09:22 49.00083 2.58111 360 ft 0 kts 265°
2026-05-05 09:25 49.00082 2.58105 360 ft 2 kts 265°
2026-05-05 09:25 49.00080 2.58053 360 ft 9 kts 265°
2026-05-05 09:25 49.00074 2.57948 361 ft 9 kts 265°
2026-05-05 09:25 49.00067 2.57829 362 ft 7 kts 265°
2026-05-05 09:26 49.00039 2.57752 360 ft 10 kts 207°
2026-05-05 09:26 48.99984 2.57677 368 ft 13 kts 249°
2026-05-05 09:26 48.99970 2.57519 362 ft 17 kts 265°
2026-05-05 09:26 48.99959 2.57317 361 ft 20 kts 265°
2026-05-05 09:27 48.99949 2.57125 366 ft 18 kts 266°
2026-05-05 09:27 48.99944 2.57037 367 ft 18 kts 264°
2026-05-05 09:27 48.99934 2.56847 361 ft 22 kts 265°
2026-05-05 09:27 48.99922 2.56615 362 ft 15 kts 266°
2026-05-05 09:28 48.99914 2.56479 366 ft 15 kts 265°
2026-05-05 09:28 48.99905 2.56302 363 ft 19 kts 265°
2026-05-05 09:28 48.99893 2.56082 361 ft 20 kts 266°
2026-05-05 09:28 48.99897 2.55899 361 ft 18 kts 281°
2026-05-05 09:29 48.99943 2.55716 364 ft 19 kts 309°
2026-05-05 09:29 49.00028 2.55605 365 ft 17 kts 292°
2026-05-05 09:29 49.00114 2.55475 362 ft 20 kts 342°
2026-05-05 09:29 49.00241 2.55419 367 ft 19 kts 345°
2026-05-05 09:30 49.00380 2.55358 363 ft 22 kts 345°
2026-05-05 09:30 49.00498 2.55306 366 ft 16 kts 343°
2026-05-05 09:30 49.00608 2.55258 361 ft 17 kts 344°
2026-05-05 09:30 49.00735 2.55203 361 ft 21 kts 344°
2026-05-05 09:31 49.00870 2.55145 367 ft 18 kts 344°
2026-05-05 09:31 49.00990 2.55093 367 ft 18 kts 344°
2026-05-05 09:31 49.01099 2.55045 366 ft 16 kts 344°
2026-05-05 09:31 49.01218 2.54994 367 ft 20 kts 344°
2026-05-05 09:32 49.01359 2.54932 361 ft 23 kts 344°
2026-05-05 09:32 49.01493 2.54900 367 ft 18 kts 355°
2026-05-05 09:32 49.01632 2.54883 365 ft 22 kts 355°
2026-05-05 09:32 49.01781 2.54861 366 ft 22 kts 347°
2026-05-05 09:33 49.01841 2.54719 363 ft 18 kts 267°
2026-05-05 09:33 49.01830 2.54508 367 ft 20 kts 264°
2026-05-05 09:33 49.01868 2.54337 361 ft 18 kts 324°
2026-05-05 09:33 49.01901 2.54165 364 ft 18 kts 267°
2026-05-05 09:34 49.01891 2.53957 362 ft 19 kts 265°
2026-05-05 09:34 49.01879 2.53734 361 ft 23 kts 265°
2026-05-05 09:34 49.01866 2.53524 364 ft 19 kts 264°
2026-05-05 09:34 49.01856 2.53339 365 ft 13 kts 267°
2026-05-05 09:35 49.01851 2.53207 362 ft 14 kts 266°
2026-05-05 09:35 49.01830 2.52829 361 ft 21 kts 265°
2026-05-05 09:35 49.01819 2.52612 363 ft 21 kts 265°
2026-05-05 09:36 49.01815 2.52394 367 ft 13 kts 299°
2026-05-05 09:36 49.01886 2.52300 368 ft 15 kts 290°
2026-05-05 09:36 49.01881 2.52129 366 ft 18 kts 265°
2026-05-05 09:36 49.01868 2.51917 361 ft 22 kts 264°
2026-05-05 09:37 49.01853 2.51676 361 ft 22 kts 265°
2026-05-05 09:37 49.01841 2.51462 361 ft 19 kts 266°
2026-05-05 09:37 49.01885 2.51275 363 ft 20 kts 327°
2026-05-05 09:37 49.02005 2.51298 369 ft 16 kts 40°
2026-05-05 09:38 49.02067 2.51424 366 ft 12 kts 79°
2026-05-05 09:38 49.02069 2.51443 361 ft 0 kts 82°
2026-05-05 09:38 49.02085 2.51687 359 ft 67 kts 86°
2026-05-05 09:38 49.02147 2.52836 369 ft 148 kts 85°
2026-05-05 09:39 49.02236 2.54630 790 ft 179 kts 83°
2026-05-05 09:39 49.02330 2.56475 2034 ft 165 kts 83°
2026-05-05 09:39 49.02418 2.58209 2970 ft 170 kts 83°
2026-05-05 09:39 49.02528 2.60127 3438 ft 197 kts 84°
2026-05-05 09:40 49.02648 2.62275 4171 ft 209 kts 85°
2026-05-05 09:40 49.02773 2.64621 4720 ft 237 kts 85°
2026-05-05 09:40 49.02913 2.67213 5549 ft 251 kts 85°
2026-05-05 09:40 49.03058 2.69894 6586 ft 258 kts 86°
2026-05-05 09:41 49.03203 2.72655 7686 ft 265 kts 86°
2026-05-05 09:41 49.03352 2.75485 8797 ft 272 kts 86°
2026-05-05 09:41 49.03499 2.78390 9926 ft 278 kts 86°
2026-05-05 09:41 49.03651 2.81403 10731 ft 298 kts 86°
2026-05-05 09:42 49.03813 2.84613 11523 ft 314 kts 86°
2026-05-05 09:42 49.03981 2.87975 12541 ft 323 kts 86°
2026-05-05 09:42 49.04096 2.91431 13552 ft 329 kts 92°
2026-05-05 09:42 49.03662 2.94861 14544 ft 334 kts 112°
2026-05-05 09:43 49.02425 2.97857 15527 ft 338 kts 133°
2026-05-05 09:43 49.00536 2.99963 16470 ft 342 kts 155°
2026-05-05 09:43 48.98231 3.00897 17418 ft 348 kts 174°
2026-05-05 09:43 48.95797 3.01046 18353 ft 353 kts 178°
2026-05-05 09:44 48.93330 3.00991 19329 ft 357 kts 183°
2026-05-05 09:44 48.90909 3.00284 20253 ft 363 kts 197°
2026-05-05 09:44 48.88617 2.98607 21141 ft 370 kts 212°
2026-05-05 09:44 48.86844 2.96310 21927 ft 377 kts 226°
2026-05-05 09:45 48.85621 2.93780 22604 ft 383 kts 238°
2026-05-05 09:45 48.84615 2.90009 23410 ft 392 kts 254°
2026-05-05 09:45 48.84284 2.85855 24204 ft 400 kts 266°
2026-05-05 09:45 48.84234 2.81606 24954 ft 405 kts 267°
2026-05-05 09:46 48.84191 2.77360 25689 ft 410 kts 266°
2026-05-05 09:46 48.84135 2.73322 26370 ft 413 kts 265°
2026-05-05 09:46 48.84058 2.68914 27093 ft 417 kts 265°
2026-05-05 09:46 48.83730 2.64552 27770 ft 416 kts 254°
2026-05-05 09:47 48.82829 2.60439 28448 ft 413 kts 241°
2026-05-05 09:47 48.81395 2.56733 29131 ft 411 kts 231°
2026-05-05 09:47 48.79726 2.53210 29772 ft 413 kts 230°
2026-05-05 09:47 48.78054 2.49682 30388 ft 416 kts 230°
2026-05-05 09:48 48.76367 2.46102 30988 ft 419 kts 230°
2026-05-05 09:48 48.74661 2.42543 31550 ft 420 kts 228°
2026-05-05 09:48 48.72733 2.39312 32078 ft 419 kts 219°
2026-05-05 09:48 48.70437 2.36618 32589 ft 417 kts 209°
2026-05-05 09:49 48.67953 2.34344 33093 ft 419 kts 207°
2026-05-05 09:49 48.65434 2.32106 33552 ft 422 kts 207°
2026-05-05 09:49 48.62896 2.29841 34026 ft 425 kts 207°
2026-05-05 09:49 48.60342 2.27557 34505 ft 427 kts 207°
2026-05-05 09:50 48.57873 2.25347 34804 ft 433 kts 207°
2026-05-05 09:50 48.55255 2.23042 35031 ft 439 kts 206°
2026-05-05 09:50 48.52509 2.21138 35341 ft 441 kts 198°
2026-05-05 09:50 48.49547 2.19926 35666 ft 443 kts 188°
2026-05-05 09:51 48.46470 2.19507 35955 ft 446 kts 179°
2026-05-05 09:51 48.43356 2.19685 36221 ft 451 kts 176°
2026-05-05 09:51 48.40206 2.19978 36466 ft 455 kts 176°
2026-05-05 09:51 48.37025 2.20267 36721 ft 459 kts 177°
2026-05-05 09:52 48.33830 2.20542 37032 ft 461 kts 177°
2026-05-05 09:52 48.30662 2.20812 37310 ft 462 kts 177°
2026-05-05 09:52 48.27456 2.21322 37520 ft 466 kts 172°
2026-05-05 09:52 48.24246 2.22083 37691 ft 469 kts 171°
2026-05-05 09:53 48.21008 2.22881 37857 ft 472 kts 172°
2026-05-05 09:53 48.17758 2.23679 37997 ft 475 kts 172°
2026-05-05 09:53 48.14495 2.24474 38127 ft 477 kts 172°
2026-05-05 09:53 48.11206 2.25271 38210 ft 479 kts 172°
2026-05-05 09:54 48.04586 2.26301 38745 ft 473 kts 178°
2026-05-05 09:54 48.01313 2.26539 39260 ft 469 kts 179°
2026-05-05 09:54 47.98055 2.26728 39610 ft 469 kts 179°
2026-05-05 09:55 47.94827 2.26901 39883 ft 471 kts 179°
2026-05-05 09:55 47.91552 2.27078 40162 ft 472 kts 179°
2026-05-05 09:55 47.88268 2.27265 40454 ft 473 kts 179°
2026-05-05 09:55 47.84972 2.27462 40732 ft 474 kts 179°
2026-05-05 09:56 47.78361 2.27876 40833 ft 476 kts 179°
2026-05-05 09:56 47.71785 2.28295 40833 ft 477 kts 179°
2026-05-05 09:57 47.65158 2.28715 40833 ft 476 kts 179°
2026-05-05 09:57 47.58538 2.29133 40842 ft 476 kts 179°
2026-05-05 09:58 47.51915 2.29548 40842 ft 476 kts 179°
2026-05-05 09:58 47.45303 2.29962 40845 ft 476 kts 179°
2026-05-05 09:59 47.38727 2.30373 40851 ft 476 kts 179°
2026-05-05 09:59 47.32105 2.30786 40852 ft 476 kts 179°
2026-05-05 10:00 47.25507 2.31196 40851 ft 473 kts 179°
2026-05-05 10:00 47.18930 2.31604 40859 ft 472 kts 179°
2026-05-05 10:01 47.12412 2.32007 40860 ft 472 kts 179°
2026-05-05 10:01 47.05856 2.32411 40860 ft 472 kts 179°
2026-05-05 10:02 46.99292 2.32816 40853 ft 471 kts 179°
2026-05-05 10:02 46.92741 2.33218 40860 ft 471 kts 179°
2026-05-05 10:03 46.86239 2.33746 40860 ft 472 kts 174°
2026-05-05 10:03 46.79869 2.36127 40859 ft 475 kts 162°
2026-05-05 10:04 46.73685 2.39597 40861 ft 477 kts 160°
2026-05-05 10:04 46.67536 2.43223 40862 ft 477 kts 160°
2026-05-05 10:05 46.61420 2.46799 40860 ft 476 kts 160°
2026-05-05 10:05 46.55261 2.50349 40872 ft 476 kts 161°
2026-05-05 10:06 46.49096 2.53879 40870 ft 476 kts 161°
2026-05-05 10:06 46.42930 2.57400 40869 ft 476 kts 161°
2026-05-05 10:07 46.36800 2.60894 40877 ft 476 kts 161°
2026-05-05 10:07 46.30633 2.64402 40872 ft 476 kts 161°
2026-05-05 10:08 46.24462 2.67903 40888 ft 476 kts 161°
2026-05-05 10:08 46.19332 2.70807 40890 ft 476 kts 161°
2026-05-05 10:09 46.12159 2.74859 40893 ft 476 kts 161°
2026-05-05 10:09 46.05993 2.78332 40895 ft 476 kts 161°
2026-05-05 10:10 45.99817 2.81802 40895 ft 476 kts 161°
2026-05-05 10:10 45.94668 2.84619 40905 ft 476 kts 162°
2026-05-05 10:11 45.87444 2.88385 40907 ft 475 kts 163°
2026-05-05 10:11 45.82277 2.91073 40906 ft 475 kts 163°
2026-05-05 10:12 45.76032 2.94115 40907 ft 472 kts 169°
2026-05-05 10:12 45.69563 2.95167 40915 ft 467 kts 181°
2026-05-05 10:13 45.63056 2.95094 40915 ft 467 kts 184°
2026-05-05 10:13 45.56564 2.94854 40916 ft 467 kts 184°
2026-05-05 10:14 45.50110 2.94636 40915 ft 467 kts 183°
2026-05-05 10:14 45.43619 2.94453 40916 ft 467 kts 183°
2026-05-05 10:15 45.37131 2.94283 40924 ft 467 kts 183°
2026-05-05 10:15 45.30631 2.94115 40925 ft 466 kts 183°
2026-05-05 10:16 45.24191 2.93947 40926 ft 466 kts 183°
2026-05-05 10:16 45.17701 2.93778 40934 ft 466 kts 184°
2026-05-05 10:17 45.11220 2.93609 40933 ft 466 kts 184°
2026-05-05 10:17 45.04745 2.93439 40942 ft 466 kts 184°
2026-05-05 10:18 44.98309 2.93272 40953 ft 466 kts 184°
2026-05-05 10:18 44.91825 2.93104 40953 ft 466 kts 184°
2026-05-05 10:19 44.85346 2.92936 40954 ft 466 kts 184°
2026-05-05 10:19 44.78875 2.92618 40953 ft 465 kts 186°
2026-05-05 10:20 44.72460 2.92086 40953 ft 465 kts 186°
2026-05-05 10:20 44.66004 2.91556 40953 ft 465 kts 186°
2026-05-05 10:21 44.59556 2.91069 40962 ft 464 kts 186°
2026-05-05 10:21 44.53095 2.90600 40963 ft 464 kts 186°
2026-05-05 10:22 44.46693 2.90139 40964 ft 464 kts 186°
2026-05-05 10:22 44.40249 2.89674 40961 ft 464 kts 186°
2026-05-05 10:23 44.33798 2.89207 40963 ft 464 kts 186°
2026-05-05 10:23 44.27349 2.88742 40962 ft 464 kts 186°
2026-05-05 10:24 44.20939 2.88281 40962 ft 464 kts 186°
2026-05-05 10:24 44.14492 2.87818 40963 ft 464 kts 186°
2026-05-05 10:25 44.08050 2.87357 40962 ft 464 kts 186°
2026-05-05 10:25 44.01608 2.86895 40965 ft 464 kts 186°
2026-05-05 10:26 43.95208 2.86439 40962 ft 463 kts 186°
2026-05-05 10:26 43.88776 2.85983 40963 ft 462 kts 186°
2026-05-05 10:27 43.82352 2.85526 40969 ft 462 kts 186°
2026-05-05 10:27 43.75923 2.85093 40971 ft 463 kts 185°
2026-05-05 10:28 43.69473 2.85140 40972 ft 464 kts 182°
2026-05-05 10:28 43.63054 2.85368 40972 ft 465 kts 182°
2026-05-05 10:29 43.56590 2.85535 40966 ft 464 kts 183°
2026-05-05 10:29 43.50133 2.85642 40963 ft 464 kts 183°
2026-05-05 10:30 43.43723 2.85729 40962 ft 464 kts 183°
2026-05-05 10:30 43.37274 2.85820 40963 ft 464 kts 183°
2026-05-05 10:31 43.30812 2.85914 40962 ft 464 kts 183°
2026-05-05 10:31 43.24356 2.86007 40954 ft 464 kts 184°
2026-05-05 10:32 43.17905 2.86099 40952 ft 464 kts 184°
2026-05-05 10:32 43.11495 2.86192 40943 ft 464 kts 184°
2026-05-05 10:33 43.05044 2.86286 40943 ft 464 kts 184°
2026-05-05 10:33 42.98600 2.86378 40944 ft 463 kts 184°
2026-05-05 10:34 42.92151 2.86470 40943 ft 463 kts 184°
2026-05-05 10:34 42.85748 2.86562 40943 ft 463 kts 184°
2026-05-05 10:35 42.79301 2.86654 40943 ft 463 kts 184°
2026-05-05 10:35 42.72875 2.86433 40938 ft 460 kts 188°
2026-05-05 10:36 42.66500 2.85743 40934 ft 460 kts 189°
2026-05-05 10:36 42.60171 2.84988 40891 ft 460 kts 189°
2026-05-05 10:37 42.56957 2.84600 40686 ft 467 kts 189°
2026-05-05 10:37 42.53713 2.84211 40652 ft 470 kts 189°
2026-05-05 10:37 42.47160 2.83440 40766 ft 474 kts 189°
2026-05-05 10:38 42.40556 2.82667 40785 ft 478 kts 189°
2026-05-05 10:38 42.33965 2.81904 40789 ft 479 kts 189°
2026-05-05 10:39 42.30676 2.81526 40916 ft 467 kts 189°
2026-05-05 10:39 42.27483 2.81165 40941 ft 457 kts 189°
2026-05-05 10:39 42.21116 2.80424 40867 ft 465 kts 189°
2026-05-05 10:40 42.14625 2.79663 40628 ft 469 kts 189°
2026-05-05 10:40 42.11414 2.79291 40401 ft 470 kts 189°
2026-05-05 10:40 42.08113 2.78910 40170 ft 470 kts 189°
2026-05-05 10:41 42.04904 2.78542 39939 ft 469 kts 189°
2026-05-05 10:41 42.01658 2.78169 39701 ft 468 kts 189°
2026-05-05 10:41 41.98416 2.77798 39469 ft 467 kts 189°
2026-05-05 10:41 41.95184 2.77427 39225 ft 465 kts 190°
2026-05-05 10:42 41.88752 2.76748 38760 ft 463 kts 189°
2026-05-05 10:42 41.85533 2.76483 38511 ft 463 kts 189°
2026-05-05 10:42 41.82365 2.76241 38277 ft 462 kts 189°
2026-05-05 10:43 41.79164 2.75997 38041 ft 461 kts 189°
2026-05-05 10:43 41.75964 2.75749 37808 ft 460 kts 189°
2026-05-05 10:43 41.72778 2.75496 37562 ft 459 kts 189°
2026-05-05 10:43 41.69586 2.75236 37322 ft 459 kts 189°
2026-05-05 10:44 41.66403 2.74984 37079 ft 459 kts 189°
2026-05-05 10:44 41.63207 2.74807 36840 ft 459 kts 188°
2026-05-05 10:44 41.60021 2.74688 36597 ft 459 kts 187°
2026-05-05 10:44 41.56829 2.74586 36375 ft 458 kts 187°
2026-05-05 10:45 41.53636 2.74483 36131 ft 459 kts 187°
2026-05-05 10:45 41.50478 2.74372 35926 ft 463 kts 188°
2026-05-05 10:45 41.47240 2.74248 35702 ft 466 kts 188°
2026-05-05 10:45 41.43996 2.74118 35461 ft 467 kts 188°
2026-05-05 10:46 41.40751 2.73986 35227 ft 467 kts 188°
2026-05-05 10:46 41.37502 2.73852 34979 ft 467 kts 188°
2026-05-05 10:46 41.34255 2.73717 34736 ft 468 kts 188°
2026-05-05 10:46 41.31004 2.73581 34596 ft 466 kts 188°
2026-05-05 10:47 41.27806 2.73449 34468 ft 465 kts 188°
2026-05-05 10:47 41.24580 2.73315 34229 ft 465 kts 188°
2026-05-05 10:47 41.21337 2.73182 33977 ft 466 kts 188°
2026-05-05 10:47 41.18092 2.73050 33732 ft 467 kts 188°
2026-05-05 10:48 41.14836 2.72916 33532 ft 468 kts 188°
2026-05-05 10:48 41.11586 2.72780 33381 ft 468 kts 188°
2026-05-05 10:48 41.08325 2.72645 33312 ft 469 kts 188°
2026-05-05 10:49 41.01819 2.72377 33174 ft 468 kts 188°
2026-05-05 10:49 40.95338 2.72110 33009 ft 470 kts 188°
2026-05-05 10:49 40.92068 2.71976 32888 ft 470 kts 188°
2026-05-05 10:50 40.88805 2.71844 32842 ft 470 kts 188°
2026-05-05 10:50 40.82267 2.71580 32682 ft 470 kts 188°
2026-05-05 10:51 40.75726 2.71309 32581 ft 471 kts 188°